When you browse on this site, cookies collect data to enhance your experience and personalize the content and advertising you see.
Visit our Privacy Policy to learn more. By continuing to use the site, you agree to this use of cookies and data.
  • In France
  • List of Countries
  • For 7 days
  • Water Temperature
  • Weather Map
  • Weather Widgets
  • user-avatar
    Login

    Hourly Weather Rowy

    Today, 15 October, Tuesday

    Time Temperature Precipitation Wind Pressure Humidity
    00:00 +10°C° 0 mm 2 mps 761 mmHg 87%
    01:00 +10°C° 0 mm 3 mps 761 mmHg 86%
    02:00 +10°C° 0 mm 3 mps 761 mmHg 85%
    03:00 +10°C° 0 mm 4 mps 761 mmHg 83%
    04:00 +9°C° 0 mm 5 mps 760 mmHg 81%
    05:00 +10°C° 0 mm 5 mps 760 mmHg 81%
    06:00 +10°C° 0 mm 6 mps 760 mmHg 81%
    07:00 +10°C° 0 mm 7 mps 760 mmHg 80%
    08:00 +13°C° 0 mm 6 mps 759 mmHg 78%
    09:00 +14°C° 0 mm 6 mps 759 mmHg 76%
    10:00 +16°C° 0 mm 6 mps 758 mmHg 74%
    11:00 +17°C° 0 mm 6 mps 758 mmHg 72%
    12:00 +19°C° 0 mm 5 mps 757 mmHg 69%
    13:00 +20°C° 0 mm 5 mps 757 mmHg 67%
    14:00 +19°C° 0 mm 5 mps 756 mmHg 69%
    15:00 +19°C° 0 mm 4 mps 756 mmHg 71%
    16:00 +19°C° 0 mm 4 mps 755 mmHg 73%
    17:00 +18°C° 0 mm 4 mps 755 mmHg 76%
    18:00 +17°C° 0 mm 4 mps 755 mmHg 78%
    19:00 +15°C° 0 mm 4 mps 754 mmHg 81%
    20:00 +14°C° 0 mm 4 mps 754 mmHg 82%
    21:00 +14°C° 0 mm 4 mps 754 mmHg 83%
    22:00 +14°C° 0 mm 4 mps 754 mmHg 84%
    23:00 +14°C° 0 mm 4 mps 754 mmHg 84%

    Tomorrow, 16 October, Wednesday

    Time Temperature Precipitation Wind Pressure Humidity
    00:00 +14°C° 0 mm 4 mps 754 mmHg 84%
    01:00 +14°C° 0 mm 4 mps 753 mmHg 84%
    02:00 +13°C° 0 mm 4 mps 753 mmHg 83%
    03:00 +13°C° 0 mm 4 mps 752 mmHg 82%
    04:00 +13°C° 0 mm 4 mps 752 mmHg 82%
    05:00 +13°C° 0 mm 4 mps 752 mmHg 83%
    06:00 +13°C° 0 mm 4 mps 751 mmHg 85%
    07:00 +13°C° 0 mm 4 mps 751 mmHg 86%
    08:00 +13°C° 0 mm 4 mps 751 mmHg 84%
    09:00 +14°C° 0 mm 5 mps 752 mmHg 83%
    10:00 +15°C° 0 mm 6 mps 752 mmHg 81%
    11:00 +13°C° 0.2 mm 8 mps 752 mmHg 80%
    12:00 +13°C° 0.2 mm 9 mps 752 mmHg 80%
    13:00 +12°C° 0.2 mm 11 mps 753 mmHg 80%
    14:00 +12°C° 0.1 mm 10 mps 753 mmHg 76%
    15:00 +12°C° 0.1 mm 10 mps 753 mmHg 73%
    16:00 +12°C° 0.1 mm 9 mps 753 mmHg 70%
    17:00 +12°C° 0.2 mm 9 mps 753 mmHg 73%
    18:00 +11°C° 0.2 mm 9 mps 753 mmHg 77%
    19:00 +11°C° 0.2 mm 10 mps 753 mmHg 80%
    20:00 +11°C° 1.8 mm 10 mps 752 mmHg 83%
    21:00 +11°C° 1.8 mm 10 mps 752 mmHg 87%
    22:00 +11°C° 1.8 mm 10 mps 752 mmHg 91%
    23:00 +11°C° 1.7 mm 9 mps 752 mmHg 91%

    Day after tomorrow, 17 October, Thursday

    Time Temperature Precipitation Wind Pressure Humidity
    00:00 +11°C° 1.7 mm 9 mps 753 mmHg 92%
    01:00 +12°C° 1.7 mm 8 mps 753 mmHg 92%
    02:00 +12°C° 0.7 mm 8 mps 754 mmHg 92%
    03:00 +12°C° 0.7 mm 8 mps 754 mmHg 92%
    04:00 +12°C° 0.7 mm 8 mps 755 mmHg 92%
    05:00 +12°C° 0.2 mm 8 mps 756 mmHg 92%
    06:00 +11°C° 0.2 mm 8 mps 756 mmHg 91%
    07:00 +11°C° 0.2 mm 8 mps 757 mmHg 91%
    08:00 +11°C° 0 mm 8 mps 758 mmHg 90%
    09:00 +11°C° 0 mm 7 mps 758 mmHg 90%
    10:00 +12°C° 0 mm 7 mps 759 mmHg 89%
    11:00 +13°C° 0 mm 6 mps 759 mmHg 88%
    12:00 +13°C° 0 mm 5 mps 760 mmHg 87%
    13:00 +14°C° 0 mm 4 mps 760 mmHg 85%
    14:00 +14°C° 0 mm 4 mps 760 mmHg 86%
    15:00 +14°C° 0 mm 3 mps 760 mmHg 86%
    16:00 +14°C° 0 mm 3 mps 760 mmHg 86%
    17:00 +13°C° 0 mm 3 mps 760 mmHg 87%
    18:00 +13°C° 0 mm 3 mps 761 mmHg 88%
    19:00 +13°C° 0 mm 3 mps 761 mmHg 89%
    20:00 +13°C° 0 mm 3 mps 761 mmHg 88%
    21:00 +13°C° 0 mm 3 mps 761 mmHg 87%
    22:00 +13°C° 0 mm 4 mps 761 mmHg 85%
    23:00 +12°C° 0 mm 4 mps 761 mmHg 87%

    18 October, Friday

    Time Temperature Precipitation Wind Pressure Humidity
    00:00 +11°C° 0 mm 4 mps 761 mmHg 89%
    01:00 +11°C° 0 mm 4 mps 761 mmHg 90%
    02:00 +11°C° 0 mm 4 mps 761 mmHg 91%
    03:00 +11°C° 0 mm 4 mps 761 mmHg 91%
    04:00 +11°C° 0 mm 4 mps 762 mmHg 92%
    05:00 +11°C° 0.1 mm 3 mps 762 mmHg 92%
    06:00 +11°C° 0.1 mm 3 mps 762 mmHg 93%
    07:00 +11°C° 0.1 mm 3 mps 762 mmHg 93%
    08:00 +13°C° 0 mm 2 mps 762 mmHg 90%
    09:00 +13°C° 0 mm 2 mps 762 mmHg 87%
    10:00 +14°C° 0 mm 2 mps 762 mmHg 85%
    11:00 +15°C° 0 mm 2 mps 762 mmHg 79%
    12:00 +16°C° 0 mm 1 mps 762 mmHg 74%
    13:00 +18°C° 0 mm 1 mps 762 mmHg 69%
    14:00 +16°C° 0 mm 1 mps 762 mmHg 73%
    15:00 +16°C° 0 mm 1 mps 762 mmHg 76%
    16:00 +15°C° 0 mm 2 mps 762 mmHg 80%
    17:00 +14°C° 0 mm 2 mps 762 mmHg 81%
    18:00 +14°C° 0 mm 2 mps 762 mmHg 82%
    19:00 +12°C° 0 mm 3 mps 762 mmHg 82%
    20:00 +12°C° 0 mm 3 mps 762 mmHg 80%
    21:00 +12°C° 0 mm 3 mps 762 mmHg 78%
    22:00 +12°C° 0 mm 3 mps 762 mmHg 76%
    23:00 +13°C° 0.1 mm 3 mps 762 mmHg 76%

    19 October, Saturday

    Time Temperature Precipitation Wind Pressure Humidity
    00:00 +13°C° 0.1 mm 3 mps 762 mmHg 76%
    01:00 +13°C° 0.1 mm 3 mps 762 mmHg 77%
    02:00 +13°C° 0 mm 4 mps 762 mmHg 77%
    03:00 +13°C° 0 mm 4 mps 762 mmHg 78%
    04:00 +13°C° 0 mm 4 mps 762 mmHg 79%
    05:00 +13°C° 0 mm 4 mps 762 mmHg 79%
    06:00 +12°C° 0 mm 5 mps 762 mmHg 79%
    07:00 +12°C° 0 mm 5 mps 762 mmHg 79%
    08:00 +13°C° 0.1 mm 5 mps 762 mmHg 78%
    09:00 +13°C° 0.1 mm 5 mps 762 mmHg 76%
    10:00 +14°C° 0.1 mm 5 mps 762 mmHg 75%
    11:00 +15°C° 0 mm 5 mps 762 mmHg 71%
    12:00 +16°C° 0 mm 5 mps 762 mmHg 68%
    13:00 +17°C° 0 mm 5 mps 762 mmHg 64%
    14:00 +18°C° 0 mm 4 mps 761 mmHg 67%
    15:00 +17°C° 0 mm 4 mps 761 mmHg 70%
    16:00 +17°C° 0 mm 3 mps 761 mmHg 73%
    17:00 +15°C° 0 mm 4 mps 761 mmHg 75%
    18:00 +14°C° 0 mm 4 mps 761 mmHg 78%
    19:00 +13°C° 0 mm 4 mps 761 mmHg 81%
    20:00 +13°C° 0 mm 4 mps 760 mmHg 82%
    21:00 +13°C° 0 mm 4 mps 760 mmHg 84%
    22:00 +13°C° 0 mm 4 mps 760 mmHg 85%
    23:00 +12°C° 0 mm 4 mps 760 mmHg 87%

    20 October, Sunday

    Time Temperature Precipitation Wind Pressure Humidity
    00:00 +12°C° 0 mm 4 mps 759 mmHg 88%
    01:00 +12°C° 0 mm 4 mps 759 mmHg 90%
    02:00 +12°C° 0 mm 4 mps 759 mmHg 90%
    03:00 +12°C° 0 mm 4 mps 758 mmHg 90%
    04:00 +12°C° 0 mm 4 mps 758 mmHg 91%
    05:00 +12°C° 0 mm 5 mps 757 mmHg 90%
    06:00 +12°C° 0 mm 5 mps 757 mmHg 90%
    07:00 +12°C° 0 mm 5 mps 757 mmHg 90%
    08:00 +14°C° 0 mm 5 mps 756 mmHg 84%
    09:00 +15°C° 0 mm 5 mps 756 mmHg 78%
    10:00 +17°C° 0 mm 5 mps 755 mmHg 71%
    11:00 +17°C° 0 mm 5 mps 755 mmHg 68%
    12:00 +19°C° 0 mm 6 mps 755 mmHg 65%
    13:00 +19°C° 0 mm 6 mps 755 mmHg 63%
    14:00 +19°C° 0 mm 5 mps 754 mmHg 66%
    15:00 +17°C° 0 mm 5 mps 754 mmHg 70%
    16:00 +16°C° 0 mm 5 mps 754 mmHg 73%
    17:00 +15°C° 0 mm 5 mps 755 mmHg 76%
    18:00 +15°C° 0 mm 6 mps 755 mmHg 79%
    19:00 +14°C° 0 mm 6 mps 756 mmHg 82%
    20:00 +13°C° 0 mm 5 mps 756 mmHg 83%
    21:00 +13°C° 0 mm 5 mps 757 mmHg 83%
    22:00 +12°C° 0 mm 4 mps 757 mmHg 84%
    23:00 +12°C° 0 mm 4 mps 758 mmHg 84%
    Show more